Satellite-Ground Cal/Val Region Overpasses Predictions

Prediction of Satellite NPP Overpassing Cal/Val Region: PacNW

Region Location: (Latitude: 10.00, Longitude: 139.50) to (Latitude: 22.70, Longitude: 165.60).

Table of predicted overpasses for the next 14.0 days since TLE Epoch: 12/21/2014
Interval Starting Time Starting Location Ending Time Ending Location
1 12/22/2014 02:22:30 ( 12.47, 165.59) 12/22/2014 02:25:24 ( 22.69, 163.15)
2 12/22/2014 04:03:18 ( 10.02, 140.78) 12/22/2014 04:04:52 ( 15.54, 139.51)
3 12/22/2014 14:53:41 ( 22.68, 163.36) 12/22/2014 14:57:16 ( 10.06, 160.37)
4 12/23/2014 03:44:15 ( 10.01, 145.54) 12/23/2014 03:47:51 ( 22.69, 142.54)
5 12/23/2014 14:37:38 ( 12.12, 165.60) 12/23/2014 14:38:14 ( 10.00, 165.11)
6 12/23/2014 16:16:08 ( 22.67, 142.74) 12/23/2014 16:19:43 ( 10.05, 139.75)
7 12/24/2014 03:25:11 ( 10.01, 150.30) 12/24/2014 03:28:47 ( 22.69, 147.30)
8 12/24/2014 15:57:04 ( 22.68, 147.50) 12/24/2014 16:00:39 ( 10.05, 144.51)
9 12/25/2014 03:06:08 ( 10.01, 155.06) 12/25/2014 03:09:44 ( 22.69, 152.05)
10 12/25/2014 15:38:01 ( 22.68, 152.26) 12/25/2014 15:41:36 ( 10.05, 149.27)
11 12/26/2014 02:47:04 ( 10.01, 159.82) 12/26/2014 02:50:40 ( 22.69, 156.81)
12 12/26/2014 15:18:57 ( 22.67, 157.02) 12/26/2014 15:22:32 ( 10.05, 154.03)
13 12/27/2014 02:28:01 ( 10.01, 164.58) 12/27/2014 02:31:37 ( 22.69, 161.57)
14 12/27/2014 14:59:54 ( 22.67, 161.78) 12/27/2014 15:03:29 ( 10.05, 158.79)
15 12/28/2014 03:50:28 ( 10.02, 143.96) 12/28/2014 03:54:03 ( 22.64, 140.97)
16 12/28/2014 14:41:56 ( 18.80, 165.59) 12/28/2014 14:44:25 ( 10.04, 163.55)
17 12/28/2014 16:22:20 ( 22.65, 141.16) 12/28/2014 16:24:16 ( 15.85, 139.51)
18 12/29/2014 03:31:24 ( 10.03, 148.72) 12/29/2014 03:34:59 ( 22.65, 145.73)
19 12/29/2014 16:03:17 ( 22.65, 145.92) 12/29/2014 16:06:52 ( 10.02, 142.93)
20 12/30/2014 03:12:21 ( 10.03, 153.48) 12/30/2014 03:15:56 ( 22.66, 150.48)
21 12/30/2014 15:44:12 ( 22.70, 150.69) 12/30/2014 15:47:48 ( 10.02, 147.68)
22 12/31/2014 02:53:17 ( 10.04, 158.23) 12/31/2014 02:56:52 ( 22.67, 155.24)
23
